FW1542 Weather Reports


time (UTC)temp
C
wind
direction
speed
KPH
gust
KPH
rain 1hr
cm
rain 24hr
cm
rain mn
cm
humidity
%
barometer
mb
20260507110052 17 26 9.7 20.9 0.00 0.00 0.00 82 1016.6
20260507110046 17 32 9.7 20.9 0.00 0.00 0.00 81 1013.9
20260507104551 17 42 6.4 22.5 0.00 0.00 0.00 81 1016.5
20260507104544 17 13 8.0 25.7 0.00 0.00 0.00 81 1013.8
20260507103050 17 26 4.8 22.5 0.00 0.00 0.00 82 1016.7
20260507103043 17 36 6.4 22.5 0.00 0.00 0.00 81 1014.0
20260507101548 17 55 8.0 22.5 0.00 0.00 0.00 82 1016.7
20260507101546 17 5 4.8 22.5 0.00 0.00 0.00 82 1014.0
20260507100045 17 46 8.0 17.7 0.00 0.00 0.00 82 1016.6
20260507100041 17 348 9.7 17.7 0.00 0.00 0.00 81 1013.7
20260507094547 17 29 4.8 16.1 0.00 0.00 0.00 81 1013.9
20260507094544 17 29 3.2 16.1 0.00 0.00 0.00 82 1016.6
20260507093049 17 19 8.0 19.3 0.00 0.00 0.00 81 1014.1
20260507093043 17 56 8.0 19.3 0.00 0.00 0.00 82 1016.8
20260507091548 17 52 3.2 17.7 0.00 0.00 0.00 81 1013.9
20260507091541 17 49 1.6 17.7 0.00 0.00 0.00 82 1016.6
20260507090047 17 38 6.4 19.3 0.00 0.00 0.00 81 1014.0
20260507090042 17 66 6.4 19.3 0.00 0.00 0.00 82 1016.7
20260507084544 17 38 6.4 22.5 0.00 0.00 0.00 82 1014.0
20260507084539 17 355 9.7 22.5 0.00 0.00 0.00 82 1016.7
20260507083049 17 360 4.8 17.7 0.00 0.00 0.00 81 1014.0
20260507083046 17 19 4.8 17.7 0.00 0.00 0.00 82 1016.6
20260507081542 17 14 3.2 14.5 0.00 0.00 0.00 81 1014.1
20260507081536 17 13 4.8 14.5 0.00 0.00 0.00 82 1016.7
20260507080116 17 5 6.4 16.1 0.00 0.00 0.00 82 1014.0
20260507080040 17 355 8.0 16.1 0.00 0.00 0.00 82 1016.7
20260507074546 17 17 4.8 16.1 0.00 0.00 0.00 82 1013.9
20260507074543 17 350 4.8 16.1 0.00 0.00 0.00 82 1016.6
20260507073050 17 328 4.8 16.1 0.00 0.00 0.00 82 1014.3
20260507073035 17 337 4.8 16.1 0.00 0.00 0.00 82 1016.9
20260507071559 17 15 6.4 19.3 0.00 0.00 0.00 82 1014.4
20260507071552 17 15 6.4 12.9 0.00 0.00 0.00 82 1017.0
20260507070051 17 71 8.0 19.3 0.00 0.00 0.00 82 1014.4
20260507070035 17 67 9.7 19.3 0.00 0.00 0.00 82 1017.1
20260507064554 17 39 9.7 24.1 0.00 0.00 0.00 82 1014.3
20260507064531 17 39 9.7 24.1 0.00 0.00 0.00 82 1016.8
20260507063054 17 25 6.4 20.9 0.00 0.00 0.00 82 1014.3
20260507063032 17 17 6.4 19.3 0.00 0.00 0.00 82 1016.8
20260507061551 18 34 9.7 20.9 0.00 0.00 0.00 82 1014.2
20260507061527 18 52 9.7 20.9 0.00 0.00 0.00 83 1016.8
20260507060047 18 69 8.0 17.7 0.00 0.00 0.00 82 1013.9
20260507060024 18 94 6.4 17.7 0.00 0.00 0.00 83 1016.4
20260507054551 18 32 6.4 17.7 0.00 0.00 0.00 82 1013.7
20260507054522 18 50 6.4 17.7 0.00 0.00 0.00 83 1016.3
20260507053047 18 40 4.8 20.9 0.00 0.00 0.00 82 1013.6
20260507053020 18 55 4.8 20.9 0.00 0.00 0.00 82 1016.1
20260507051544 18 40 9.7 25.7 0.00 0.00 0.00 81 1013.0
20260507051517 18 30 8.0 25.7 0.00 0.00 0.00 82 1015.4
20260507050047 18 51 6.4 24.1 0.00 0.00 0.00 81 1013.3
20260507050014 18 51 6.4 24.1 0.00 0.00 0.00 82 1015.7
20260507044546 18 35 6.4 20.9 0.00 0.00 0.00 81 1013.1
20260507044511 18 5 8.0 17.7 0.00 0.00 0.00 82 1015.6
20260507043047 18 61 6.4 20.9 0.00 0.00 0.00 82 1013.6
20260507043011 18 26 4.8 20.9 0.00 0.00 0.00 82 1016.0
20260507041547 18 348 9.7 22.5 0.00 0.00 0.00 81 1013.5
20260507041508 18 10 9.7 17.7 0.00 0.00 0.00 82 1015.8
20260507040057 18 26 6.4 20.9 0.00 0.00 0.00 81 1012.9
20260507040005 18 52 8.0 19.3 0.00 0.00 0.00 82 1015.4
20260507034552 18 38 8.0 22.5 0.00 0.00 0.00 81 1012.5
20260507034502 18 15 8.0 19.3 0.00 0.00 0.00 82 1014.8
20260507033100 18 28 6.4 17.7 0.00 0.00 0.00 82 1014.8
20260507033048 18 26 4.8 16.1 0.00 0.00 0.00 81 1012.4
20260507031605 18 5 8.0 20.9 0.00 0.00 0.00 81 1014.5
20260507031545 18 338 9.7 20.9 0.00 0.00 0.00 81 1012.5
20260507030057 18 48 6.4 20.9 0.00 0.00 0.00 81 1014.6
20260507030052 18 40 6.4 22.5 0.00 0.00 0.00 80 1012.4
20260507024553 19 349 11.3 25.7 0.00 0.00 0.00 81 1014.4
20260507024542 19 360 9.7 25.7 0.00 0.00 0.00 80 1012.3
20260507023049 19 336 8.0 25.7 0.00 0.00 0.00 80 1014.3
20260507023040 19 352 9.7 25.7 0.00 0.00 0.00 79 1012.3
20260507021547 20 5 8.0 25.7 0.00 0.00 0.00 79 1014.2
20260507021545 20 351 12.9 25.7 0.00 0.00 0.00 79 1012.0
20260507020047 20 334 11.3 17.7 0.00 0.00 0.00 79 1013.9
20260507014542 20 5 8.0 22.5 0.00 0.00 0.00 77 1011.5
20260507014540 20 33 9.7 22.5 0.00 0.00 0.00 78 1013.5
20260507013043 21 55 6.4 25.7 0.00 0.00 0.00 77 1010.9
20260507013039 21 46 6.4 25.7 0.00 0.00 0.00 77 1013.0
20260507011553 21 344 8.0 19.3 0.00 0.00 0.00 76 1010.7
20260507011538 21 338 8.0 17.7 0.00 0.00 0.00 76 1013.0
20260507010045 22 360 9.7 19.3 0.00 0.00 0.00 74 1010.8
20260507010030 22 360 9.7 19.3 0.00 0.00 0.00 75 1013.1
20260507004542 22 350 8.0 25.7 0.00 0.00 0.00 74 1010.4
20260507004526 22 355 8.0 25.7 0.00 0.00 0.00 74 1012.7
20260507003043 23 68 8.0 22.5 0.00 0.00 0.00 73 1010.3
20260507003023 23 52 11.3 20.9 0.00 0.00 0.00 74 1012.7
20260507001555 23 348 9.7 19.3 0.00 0.00 0.00 72 1010.3
20260507001521 23 360 11.3 19.3 0.00 0.00 0.00 73 1012.4
20260507000046 24 46 8.0 24.1 0.00 0.00 0.00 71 1010.0
20260507000019 24 54 8.0 24.1 0.00 0.00 0.00 72 1012.1
20260506234552 25 350 9.7 22.5 0.00 0.00 0.00 70 1009.6
20260506234517 25 67 9.7 22.5 0.00 0.00 0.00 71 1011.8
20260506233048 25 45 9.7 24.1 0.00 0.00 0.00 71 1009.6
20260506233017 25 26 9.7 24.1 0.00 0.00 0.00 72 1011.5
20260506231549 26 80 16.1 29.0 0.00 0.00 0.00 69 1009.2
20260506231515 26 79 16.1 29.0 0.00 0.00 0.00 70 1011.2
20260506230052 27 41 14.5 25.7 0.00 0.00 0.00 69 1009.0
20260506230014 27 347 14.5 25.7 0.00 0.00 0.00 69 1011.0
20260506224543 27 39 12.9 24.1 0.00 0.00 0.00 69 1008.9
20260506224523 27 50 12.9 24.1 0.00 0.00 0.00 70 1010.9
20260506223043 28 53 11.3 27.4 0.00 0.00 0.00 69 1008.8
20260506223013 28 355 11.3 27.4 0.00 0.00 0.00 70 1010.7
20260506221551 28 53 8.0 19.3 0.00 0.00 0.00 71 1008.4
20260506221511 28 27 9.7 19.3 0.00 0.00 0.00 71 1010.5
20260506220058 28 352 11.3 27.4 0.00 0.00 0.00 70 1008.3
20260506220012 28 5 8.0 27.4 0.00 0.00 0.00 71 1010.4
20260506214547 29 19 11.3 27.4 0.00 0.00 0.00 67 1008.3
20260506214511 29 328 11.3 27.4 0.00 0.00 0.00 68 1010.4
20260506213044 31 42 6.4 16.1 0.00 0.00 0.00 65 1008.2
20260506213019 31 49 4.8 16.1 0.00 0.00 0.00 66 1010.3
20260506211547 30 78 1.6 12.9 0.00 0.00 0.00 65 1008.2
20260506211516 30 80 1.6 12.9 0.00 0.00 0.00 66 1010.3
20260506210059 31 138 6.4 17.7 0.00 0.00 0.00 66 1008.2
20260506210010 31 46 6.4 17.7 0.00 0.00 0.00 66 1010.4
20260506204550 31 16 3.2 9.7 0.00 0.00 0.00 66 1008.4
20260506204507 30 17 3.2 9.7 0.00 0.00 0.00 69 1010.6
20260506203130 30 0 4.8 12.9 0.00 0.00 0.00 65 1008.5
20260506203006 30 83 3.2 12.9 0.00 0.00 0.00 66 1010.7
20260506201546 30 55 0.0 11.3 0.00 0.00 0.00 67 1008.7
20260506201503 30 119 0.0 11.3 0.00 0.00 0.00 68 1010.8
20260506200100 30 28 1.6 12.9 0.00 0.00 0.00 71 1011.0
20260506200050 30 28 3.2 12.9 0.00 0.00 0.00 70 1009.1
20260506194558 30 123 3.2 11.3 0.00 0.00 0.00 71 1011.2
20260506194550 30 118 3.2 11.3 0.00 0.00 0.00 71 1009.1
20260506193056 29 55 3.2 12.9 0.00 0.00 0.00 74 1011.2
20260506193041 29 52 3.2 12.9 0.00 0.00 0.00 74 1009.2
20260506191554 28 153 3.2 9.7 0.00 0.00 0.00 75 1011.3
20260506191544 28 104 1.6 12.9 0.00 0.00 0.00 75 1009.4
20260506190053 28 45 1.6 12.9 0.00 0.00 0.00 76 1011.4
20260506190050 28 44 4.8 12.9 0.00 0.00 0.00 76 1009.4
20260506184555 28 117 6.4 14.5 0.00 0.00 0.00 77 1011.6
20260506183047 27 109 6.4 14.5 0.00 0.00 0.00 77 1012.0
20260506183045 27 109 8.0 14.5 0.00 0.00 0.00 76 1009.9
20260506181545 27 44 4.8 14.5 0.00 0.00 0.00 79 1012.1
20260506181542 27 32 3.2 11.3 0.00 0.00 0.00 79 1010.1
20260506180045 27 82 8.0 16.1 0.00 0.00 0.00 78 1010.1
20260506174610 27 66 6.4 16.1 0.00 0.00 0.00 80 1010.2
20260506174541 27 67 6.4 16.1 0.00 0.00 0.00 80 1012.4
20260506173054 27 51 6.4 16.1 0.00 0.00 0.00 82 1010.1
20260506173050 27 37 6.4 16.1 0.00 0.00 0.00 82 1012.3
20260506171543 26 13 6.4 14.5 0.00 0.00 0.00 82 1010.3
20260506171538 26 19 4.8 14.5 0.00 0.00 0.00 83 1012.6
20260506170046 26 91 3.2 12.9 0.00 0.00 0.00 82 1010.2
20260506170036 26 91 3.2 12.9 0.00 0.00 0.00 83 1012.7
20260506164547 26 37 0.0 6.4 0.00 0.00 0.00 84 1010.3
20260506164533 26 37 1.6 6.4 0.00 0.00 0.00 85 1012.6
20260506163103 26 36 4.8 9.7 0.00 0.00 0.00 86 1010.3
20260506163050 26 36 3.2 9.7 0.00 0.00 0.00 87 1012.5
20260506161626 25 13 3.2 8.0 0.00 0.00 0.00 90 1012.5
20260506161542 25 5 3.2 8.0 0.00 0.00 0.00 89 1010.2
20260506160051 24 40 3.2 6.4 0.00 0.00 0.00 91 1010.0
20260506160023 24 41 3.2 6.4 0.00 0.00 0.00 92 1012.3
20260506154554 24 0 0.0 4.8 0.00 0.00 0.00 90 1010.0
20260506154531 24 50 1.6 4.8 0.00 0.00 0.00 91 1012.3
20260506153047 24 80 1.6 6.4 0.00 0.00 0.00 90 1009.8
20260506153025 24 80 3.2 6.4 0.00 0.00 0.00 91 1012.2
20260506151544 24 58 1.6 4.8 0.00 0.00 0.00 89 1009.5
20260506151520 24 63 1.6 4.8 0.00 0.00 0.00 90 1012.0
20260506150042 24 52 1.6 6.4 0.00 0.00 0.00 89 1009.4
20260506150019 24 51 0.0 6.4 0.00 0.00 0.00 90 1011.7
20260506144547 24 46 3.2 6.4 0.00 0.00 0.00 89 1009.4
20260506144518 24 46 3.2 6.4 0.00 0.00 0.00 90 1011.7
20260506143042 24 0 0.0 8.0 0.00 0.00 0.00 90 1009.1
20260506143016 24 124 0.0 4.8 0.00 0.00 0.00 90 1011.2
20260506141549 24 126 4.8 11.3 0.00 0.00 0.00 89 1008.9
20260506141514 24 119 4.8 11.3 0.00 0.00 0.00 90 1011.1
20260506140049 24 141 3.2 12.9 0.00 0.00 0.00 90 1008.6
20260506140019 24 159 1.6 12.9 0.00 0.00 0.00 91 1010.7
20260506134542 23 125 6.4 16.1 0.00 0.00 0.00 91 1008.1
20260506134510 23 134 8.0 12.9 0.00 0.00 0.00 91 1010.5
20260506133049 23 91 3.2 12.9 0.00 0.00 0.00 91 1008.2
20260506133009 23 146 3.2 9.7 0.00 0.00 0.00 92 1010.2
20260506131544 23 152 3.2 12.9 0.00 0.00 0.00 92 1008.2
20260506131517 23 137 3.2 11.3 0.00 0.00 0.00 93 1010.2
20260506130042 23 115 6.4 16.1 0.00 0.00 0.00 92 1007.9
20260506130007 23 145 6.4 16.1 0.00 0.00 0.00 93 1009.9
20260506124546 23 102 3.2 12.9 0.00 0.00 0.00 93 1007.9
20260506124505 23 103 3.2 12.9 0.00 0.00 0.00 93 1009.9
20260506123052 23 148 4.8 12.9 0.00 0.00 0.00 93 1007.8
20260506123009 23 163 4.8 12.9 0.00 0.00 0.00 93 1009.8
20260506121608 23 130 6.4 9.7 0.00 0.00 0.00 93 1010.0
20260506121554 23 106 3.2 8.0 0.00 0.00 0.00 92 1007.8
20260506120053 23 142 1.6 12.9 0.00 0.00 0.00 93 1010.1
20260506120047 23 148 3.2 12.9 0.00 0.00 0.00 92 1007.8
20260506114553 23 178 1.6 4.8 0.00 0.00 0.00 92 1010.0
20260506114549 23 178 1.6 4.8 0.00 0.00 0.00 92 1007.8
20260506113052 23 180 3.2 6.4 0.00 0.00 0.00 92 1009.9
20260506113044 23 180 3.2 6.4 0.00 0.00 0.00 92 1007.7
20260506111551 23 166 4.8 9.7 0.00 0.00 0.00 92 1010.0
20260506111542 23 158 4.8 9.7 0.00 0.00 0.00 92 1007.7